Main page
METAR-TAF:

METAR-TAF

Airports :

Bojnord Airport

Bojnourd, Iran

latitude: 37-28N, longitude: 057-20E, elevation: 1074 m

Current weather observation

The report was made 1 hour and 3 minutes ago, at 18:00 UTC
Wind 10 kt from the West
Temperature -1°C
Humidity 86%
Pressure 1016 hPa
Visibility: 9000 m
Scattered clouds at a height of 1000 ft
Scattered clouds at a height of 3000 ft
Broken clouds at a height of 6000 ft
light snow

METAR: OIMN 181800Z 28010KT 9000 -SN SCT010 SCT030 BKN060 M01/M03 Q1016

Time: 22:33 (19:03 UTC)


TAF: missing

Weather observations and forecasts of more than 4000 airports (METAR and TAF reports).

The available stations are represented by yellow and red dots on the map.

Hover mouse over dot to see the name of the station.

Then click to see weather observations and forecasts.

To change the map : click on the green buttons with a black cross to zoom in, on the green button with a dash to zoom out, or on the green arrows for adjacent maps.


METAR-TAF: